sat.trackr.live / text

‹ back to catalog

STARLINK-35973

NORAD 66632 · 2025-271R

PAYLOAD ACTIVE UNKNOWN

§ Identity

Operator
Country
US
Launch date
2025-11-23
Launch site
AFWTR
Launch vehicle
Mass (kg)
RCS (m²)

Purposes: comms

External: N2YO · Heavens-Above · Gunter

§ Orbital elements

Epoch: 2026-09-20T04:02:00.776256Z

Period
93.85 min
Inclination
53.1587°
Eccentricity
0.0001760
Mean motion
15.34406059 rev/d
Perigee alt
461.5 km
Apogee alt
463.9 km
Semi-major
6,840.8 km
B*
4.1163e-4
RAAN
311.5352°
Arg perigee
102.0810°
Mean anomaly
258.0390°
Rev number
4,736

§ Raw data

STARLINK-359731 66632U 25271R   26263.16806454  .00013559  00000+0  41163-3 0  99932 66632  53.1587 311.5352 0001760 102.0810 258.0390 15.34406059 47364

JSON: /api/v1/satellites/66632 · /tle

For live sub-satellite position, see the globe view (requires WebGL).

§ Visibility from observer

Set your observer location to see the next 7 days of passes ≥ 10°. The values pass through the URL so the page stays shareable.

No JS? Fill the form by hand. The geolocation button needs JavaScript.